Flag for Germany Weather past 2 weeks in Düsseldorf, North Rhine-Westphalia, Germany

Now
55 °F

Passing clouds.


Feels Like: 53 °F
Forecast: 46 / 58 °F
Wind: 9 mph from Southwest

Location: Duesseldorf

Current Time: Oct 20, 2014 at 7:16:12 AM

Latest Report: Oct 20, 2014 at 5:20 AM


Visibility: N/A

Pressure: 30.01 "Hg

Humidity: 88%

Dew point: 52 °F

Location of DüsseldorfLocation

Historic Weather in Düsseldorf — Graph

°F

Düsseldorf temperature yesterday

Maximum temperature yesterday: 75 °F (at 2:20 PM)
Minimum temperature yesterday: 59 °F (at 6:20 AM)
Average temperature yesterday: 65 °F

Past Weeks' High & Low Weather Summary

 TemperatureHumidityPressure
High75 °F (Oct 19, 2:20 PM)100% (Oct 6, 3:50 AM)30.09 "Hg (Oct 6, 3:50 AM)
Low48 °F (Oct 11, 4:50 AM)49% (Oct 14, 2:20 PM)29.50 "Hg (Oct 7, 9:50 AM)
Average59 °F81%29.83 "Hg
* Reported Oct 5 5:20 AM — Oct 20 5:20 AM, Düsseldorf, Weather by CustomWeather, © 2014

Note: Actual official high and low records may vary slightly from our data, if they occured in-between our weather recording intervals... More about our weather records

Advertising

Düsseldorf weather history for previous 24 hours

 ConditionsComfort  
Time TempWeatherWind HumidityBarometerVisibility
5:20 AM
Oct 20
55 °FPassing clouds.9 mph88%30.01 "HgN/A
4:50 AM54 °FPassing clouds.8 mph88%30.01 "HgN/A
4:20 AM55 °FPassing clouds.8 mph88%30.01 "HgN/A
3:50 AM55 °FPassing clouds.9 mph88%30.04 "HgN/A
3:20 AM55 °FPassing clouds.9 mph88%30.04 "HgN/A
2:50 AM57 °FPassing clouds.9 mph82%30.04 "HgN/A
2:20 AM59 °FClear.12 mph77%30.04 "Hg10 mi
1:50 AM59 °FClear.13 mph77%30.04 "Hg10 mi
1:20 AM59 °FClear.14 mph77%30.01 "Hg10 mi
12:50 AM61 °FClear.12 mph72%30.04 "Hg10 mi
12:20 AM61 °FClear.12 mph72%30.04 "Hg10 mi
11:50 PM
Oct 19
61 °FClear.17 mph72%30.04 "Hg10 mi
11:20 PM63 °FClear.14 mph68%30.01 "Hg10 mi
10:50 PM63 °FClear.8 mph77%30.01 "Hg10 mi
10:20 PM64 °FClear.7 mph78%30.01 "Hg10 mi
9:50 PM64 °FClear.12 mph78%29.98 "Hg10 mi
9:20 PM66 °FClear.13 mph78%29.98 "Hg10 mi
8:50 PM66 °FSprinkles. Partly cloudy.10 mph83%29.98 "HgN/A
8:20 PM66 °FScattered showers. Passing clouds.14 mph83%29.98 "HgN/A
7:50 PM68 °FSprinkles. Partly cloudy.10 mph73%29.95 "HgN/A
7:20 PM68 °FPartly sunny.13 mph73%29.95 "HgN/A
6:50 PM68 °FScattered clouds.15 mph73%29.95 "HgN/A
6:20 PM68 °FPassing clouds.14 mph73%29.95 "HgN/A
5:50 PM70 °FPassing clouds.15 mph69%29.95 "HgN/A
5:20 PM70 °FPassing clouds.15 mph69%29.95 "HgN/A
4:50 PM72 °FPartly sunny.18 mph65%29.95 "HgN/A
4:20 PM73 °FPassing clouds.15 mph61%29.98 "HgN/A
3:50 PM73 °FPassing clouds.17 mph61%29.95 "HgN/A
3:20 PM73 °FPassing clouds.17 mph61%29.95 "HgN/A
2:50 PM73 °FPassing clouds.17 mph61%29.95 "HgN/A
2:20 PM75 °FPassing clouds.18 mph57%29.98 "HgN/A
1:50 PM73 °FPassing clouds.12 mph61%29.98 "HgN/A
1:20 PM72 °FSunny.13 mph65%29.98 "Hg10 mi
12:50 PM72 °FSunny.12 mph69%30.01 "Hg10 mi
12:20 PM70 °FSunny.12 mph69%30.01 "Hg10 mi
11:50 AM68 °FSunny.13 mph69%30.01 "Hg10 mi
11:20 AM66 °FSunny.14 mph78%30.01 "Hg10 mi
10:50 AM64 °FSunny.15 mph78%30.01 "Hg10 mi
10:20 AM64 °FSunny.13 mph78%30.01 "Hg10 mi
9:50 AM63 °FSunny.13 mph83%30.01 "Hg10 mi
9:20 AM61 °FSunny.13 mph83%30.01 "Hg10 mi
8:50 AM61 °FClear.13 mph83%30.01 "Hg10 mi
8:20 AM59 °FClear.14 mph88%30.01 "Hg10 mi
7:50 AM59 °FClear.14 mph88%30.01 "Hg10 mi
7:20 AM59 °FClear.15 mph88%30.01 "Hg10 mi
Weather by CustomWeather, © 2014

See weather overviewHow to use our weather pages